Date String (YYYY-MM-DD hh:mm:ss) UTC,Instrument flags,absolute air pressure of the measurement (hPa),sample flow rate (lpm),inlet stack bypass flow (lpm),air temperature of the measurement (°C),ambient temperature measured by the external sensor (°C),aerosol sample conditioner tube jacket temperature (°C),OPC LED temperature (°C),internal box temperature (°C),relative humidity of the measurement (%),span deviation,mass concentration of particles derived from Lorenz-Mie calculation of OPC scattering (μg/m³),mass concentration of particles derived from Lorenz-Mie calculation of OPC scattering (μg/m³),mass concentration of particles derived from Lorenz-Mie calculation of OPC scattering (μg/m³)
DateTimeUTC,F1_M11,P_M11,Q1_M11,Q2_M11,T1_M11,T2_M11,T3_M11,T4_M11,T5_M11,U1_M11,ZSPAN_M11,X0_M11,X2_M11,X1_M11
2024-05-11 06:00:00,SystemResetWarning,0832.5,5.00,000.00,025.8,025.1,000.0,034.1,027.5,018.0,0000.0,0003.74,0003.00,0002.74
2024-05-11 06:01:00,SystemResetWarning,0832.5,5.00,000.00,025.8,025.1,000.0,034.1,027.5,018.0,0000.0,0003.62,0002.96,0002.73
2024-05-11 06:02:00,SystemResetWarning,0832.5,5.00,000.00,025.8,025.1,000.0,034.1,027.5,018.0,0000.0,0003.54,0002.94,0002.74
2024-05-11 06:03:00,SystemResetWarning,0832.5,5.00,000.00,025.8,025.1,000.0,034.1,027.5,018.0,0000.0,0003.41,0002.91,0002.73
2024-05-11 06:04:00,SystemResetWarning,0832.5,5.00,000.00,025.8,025.1,000.0,034.1,027.5,018.0,0000.0,0003.49,0002.92,0002.72
2024-05-11 06:05:00,SystemResetWarning,0832.5,5.00,000.00,025.8,025.1,000.0,034.1,027.5,018.0,0000.0,0003.53,0002.93,0002.70
2024-05-11 06:06:00,SystemResetWarning,0832.5,5.00,000.00,025.8,025.1,000.0,034.1,027.5,018.0,0000.0,0004.41,0002.93,0002.68
2024-05-11 06:07:00,SystemResetWarning,0832.5,5.01,000.00,025.8,025.1,000.0,034.1,027.5,018.0,0000.0,0005.02,0002.92,0002.67
2024-05-11 06:08:00,SystemResetWarning,0832.5,5.01,000.00,025.8,025.1,000.0,034.0,027.5,018.0,0000.0,0005.05,0002.92,0002.67
2024-05-11 06:09:00,SystemResetWarning,0832.6,5.00,000.00,025.8,025.1,000.0,034.0,027.5,017.9,0000.0,0005.03,0002.90,0002.66
2024-05-11 06:10:00,SystemResetWarning,0832.5,4.99,000.00,025.7,025.1,000.0,034.0,027.5,018.0,0000.0,0004.96,0002.87,0002.66
2024-05-11 06:11:00,SystemResetWarning,0832.5,5.00,000.00,025.7,025.1,000.0,034.0,027.5,018.0,0000.0,0004.96,0002.87,0002.67
2024-05-11 06:12:00,SystemResetWarning,0832.4,5.01,000.00,025.7,025.1,000.0,034.0,027.5,017.9,0000.0,0005.04,0002.90,0002.66
2024-05-11 06:13:00,SystemResetWarning,0832.5,5.00,000.00,025.7,025.1,000.0,034.0,027.5,017.9,0000.0,0005.13,0002.91,0002.66
2024-05-11 06:14:00,SystemResetWarning,0832.4,4.98,000.00,025.7,025.1,000.0,034.0,027.5,017.9,0000.0,0005.24,0002.94,0002.66
2024-05-11 06:15:00,SystemResetWarning,0832.4,4.99,000.00,025.7,025.1,000.0,034.0,027.5,017.9,0000.0,0005.52,0002.95,0002.67
2024-05-11 06:16:00,SystemResetWarning,0832.4,5.01,000.00,025.7,025.1,000.0,034.0,027.5,018.0,0000.0,0005.54,0002.93,0002.68
2024-05-11 06:17:00,SystemResetWarning,0832.3,5.01,000.00,025.7,025.0,000.0,034.0,027.5,018.0,0000.0,0004.94,0002.93,0002.69
2024-05-11 06:18:00,SystemResetWarning,0832.3,5.00,000.00,025.7,025.0,000.0,034.0,027.5,018.0,0000.0,0005.21,0002.94,0002.71
2024-05-11 06:19:00,SystemResetWarning,0832.3,5.00,000.00,025.7,025.0,000.0,034.0,027.4,018.0,0000.0,0005.41,0002.94,0002.71
2024-05-11 06:20:00,SystemResetWarning,0832.3,5.00,000.00,025.7,025.0,000.0,034.0,027.4,018.0,0000.0,0005.43,0002.94,0002.70
2024-05-11 06:21:00,SystemResetWarning,0832.3,4.99,000.00,025.7,025.0,000.0,034.0,027.4,018.0,0000.0,0005.47,0002.95,0002.70
2024-05-11 06:22:00,SystemResetWarning,0832.3,5.00,000.00,025.7,025.0,000.0,034.0,027.5,018.0,0000.0,0005.56,0002.98,0002.70
2024-05-11 06:23:00,SystemResetWarning,0832.3,5.00,000.00,025.7,025.0,000.0,034.0,027.4,018.0,0000.0,0005.63,0003.00,0002.71
2024-05-11 06:24:00,SystemResetWarning,0832.3,5.02,000.00,025.7,025.0,000.0,034.0,027.4,018.0,0000.0,0005.71,0003.02,0002.70
2024-05-11 06:25:00,SystemResetWarning,0832.3,4.99,000.00,025.7,025.0,000.0,034.0,027.4,018.1,0000.0,0005.61,0003.00,0002.68
2024-05-11 06:26:00,SystemResetWarning,0832.3,4.99,000.00,025.7,025.0,000.0,034.0,027.5,018.1,0000.0,0005.74,0002.95,0002.67
2024-05-11 06:27:00,SystemResetWarning,0832.3,5.00,000.00,025.7,025.0,000.0,034.0,027.4,018.1,0000.0,0005.53,0002.95,0002.67
2024-05-11 06:28:00,SystemResetWarning,0832.3,5.02,000.00,025.7,025.0,000.0,034.0,027.4,018.1,0000.0,0005.57,0002.97,0002.66
2024-05-11 06:29:00,SystemResetWarning,0832.3,4.99,000.00,025.7,025.0,000.0,034.0,027.4,018.1,0000.0,0004.84,0002.94,0002.65
2024-05-11 06:30:00,SystemResetWarning,0832.4,5.00,000.00,025.7,025.0,000.0,034.0,027.4,018.1,0000.0,0004.18,0002.93,0002.63
2024-05-11 06:31:00,SystemResetWarning,0832.3,5.00,000.00,025.7,025.0,000.0,034.0,027.4,018.1,0000.0,0004.10,0002.89,0002.61
2024-05-11 06:32:00,SystemResetWarning,0832.3,4.99,000.00,025.7,025.0,000.0,034.0,027.4,018.1,0000.0,0004.17,0002.90,0002.61
2024-05-11 06:33:00,SystemResetWarning,0832.3,5.00,000.00,025.7,025.0,000.0,034.0,027.4,018.0,0000.0,0004.13,0002.88,0002.60
2024-05-11 06:34:00,SystemResetWarning,0832.3,5.00,000.00,025.7,025.0,000.0,034.0,027.4,018.0,0000.0,0004.02,0002.84,0002.58
2024-05-11 06:35:00,SystemResetWarning,0832.3,5.02,000.00,025.7,025.0,000.0,034.0,027.4,017.9,0000.0,0003.86,0002.79,0002.56
2024-05-11 06:36:00,SystemResetWarning,0832.3,5.00,000.00,025.7,025.0,000.0,034.0,027.4,017.9,0000.0,0003.89,0002.80,0002.55
2024-05-11 06:37:00,SystemResetWarning,0832.3,4.99,000.00,025.7,025.0,000.0,034.0,027.4,017.8,0000.0,0003.62,0002.81,0002.54
2024-05-11 06:38:00,SystemResetWarning,0832.3,4.99,000.00,025.6,025.0,000.0,033.9,027.4,017.8,0000.0,0003.54,0002.79,0002.52
2024-05-11 06:39:00,SystemResetWarning,0832.3,5.00,000.00,025.6,025.0,000.0,033.9,027.4,017.8,0000.0,0003.52,0002.76,0002.50
2024-05-11 06:40:00,SystemResetWarning,0832.3,5.00,000.00,025.6,025.0,000.0,033.9,027.4,017.8,0000.0,0003.62,0002.79,0002.48
2024-05-11 06:41:00,SystemResetWarning,0832.3,5.01,000.00,025.6,024.9,000.0,033.9,027.4,017.8,0000.0,0003.65,0002.77,0002.48
2024-05-11 06:42:00,SystemResetWarning,0832.3,5.01,000.00,025.6,024.9,000.0,033.9,027.4,017.8,0000.0,0003.69,0002.79,0002.48
2024-05-11 06:43:00,SystemResetWarning,0832.3,5.01,000.00,025.6,024.9,000.0,033.9,027.4,017.8,0000.0,0003.61,0002.76,0002.46
2024-05-11 06:44:00,SystemResetWarning,0832.3,5.00,000.00,025.6,024.9,000.0,033.9,027.4,017.8,0000.0,0003.71,0002.79,0002.44
2024-05-11 06:45:00,SystemResetWarning,0832.3,5.00,000.00,025.6,024.9,000.0,033.9,027.3,017.8,0000.0,0003.78,0002.80,0002.44
2024-05-11 06:46:00,SystemResetWarning,0832.3,5.00,000.00,025.6,024.9,000.0,033.9,027.4,017.8,0000.0,0003.78,0002.79,0002.44
2024-05-11 06:47:00,SystemResetWarning,0832.3,4.99,000.00,025.6,024.9,000.0,033.9,027.3,017.8,0000.0,0003.76,0002.78,0002.44
2024-05-11 06:48:00,SystemResetWarning,0832.3,5.00,000.00,025.6,024.9,000.0,033.9,027.3,017.9,0000.0,0003.74,0002.78,0002.45
2024-05-11 06:49:00,SystemResetWarning,0832.3,5.01,000.00,025.6,024.9,000.0,033.9,027.3,017.9,0000.0,0003.74,0002.78,0002.46
2024-05-11 06:50:00,SystemResetWarning,0832.3,5.00,000.00,025.6,024.9,000.0,033.9,027.3,017.8,0000.0,0003.69,0002.76,0002.46
2024-05-11 06:51:00,SystemResetWarning,0832.3,5.00,000.00,025.6,024.9,000.0,033.9,027.3,017.8,0000.0,0003.61,0002.72,0002.46
2024-05-11 06:52:00,SystemResetWarning,0832.2,5.01,000.00,025.6,024.9,000.0,033.9,027.3,017.9,0000.0,0003.53,0002.72,0002.45
2024-05-11 06:53:00,SystemResetWarning,0832.2,5.01,000.00,025.6,024.9,000.0,033.9,027.3,017.8,0000.0,0003.59,0002.74,0002.45
2024-05-11 06:54:00,SystemResetWarning,0832.2,4.99,000.00,025.6,024.9,000.0,033.9,027.3,017.9,0000.0,0004.03,0002.76,0002.45
2024-05-11 06:55:00,SystemResetWarning,0832.2,4.99,000.00,025.6,024.9,000.0,033.9,027.3,018.0,0000.0,0004.16,0002.72,0002.45
2024-05-11 06:56:00,SystemResetWarning,0832.2,4.99,000.00,025.6,024.9,000.0,033.9,027.3,018.0,0000.0,0004.08,0002.70,0002.45
2024-05-11 06:57:00,SystemResetWarning,0832.2,5.00,000.00,025.6,024.9,000.0,033.9,027.3,018.1,0000.0,0004.09,0002.71,0002.45
2024-05-11 06:58:00,SystemResetWarning,0832.2,5.00,000.00,025.6,024.9,000.0,033.9,027.3,018.2,0000.0,0004.00,0002.68,0002.44
2024-05-11 06:59:00,SystemResetWarning,0832.2,5.00,000.00,025.6,024.9,000.0,033.9,027.3,018.2,0000.0,0003.96,0002.67,0002.44
